Location: Peebles
(55.6412°N, 3.1714°W)
Time: 09:05:57
(UTC+01:00)

Cosmos 1470 - Pass Details

Date: 26 September 2021
Orbit: 520 x 541 km, 82.5° (Epoch: 20 October)

Event Time Altitude Azimuth Distance (km) Brightness Sun altitude
Exits shadow 20:54:12 28° 77° (ENE) 1,030 3.7 -16.5°
Drops below altitude 10° 20:57:13 10° 30° (NNE) 1,816 5.4 -16.9°
Sets 20:59:35 0° 19° (NNE) 2,716 6.4 -17.2°
